Regional Weather Roundup
Issued by NWS Cleveland, OH

Home | Current Version | Previous Version | Graphics & Text | Print | Product List | Glossary On
Versions: 1 2 3 4 5 6 7 8 9 10 11 12 13 14 15 16 17 18 19 20 21 22 23 24 25 26 27 28 29 30 31 32 33 34 35 36 37 38 39 40 41 42 43 44 45 46 47 48 49 50
000
ASUS41 KCLE 040410
RWRCLE
OHIO REGIONAL WEATHER ROUNDUP
NATIONAL WEATHER SERVICE WILMINGTON, OH
1200 AM EDT FRI SEP 04 2015

NOTE: "FAIR" INDICATES FEW OR NO CLOUDS BELOW 12,000 FEET WITH NO
SIGNIFICANT WEATHER AND/OR OBSTRUCTIONS TO VISIBILITY.

OHZ001>008-015>018-024>027-034-035-043-044-040500-
   NORTHWEST OHIO

CITY           SKY/WX    TMP DP  RH WIND       PRES   REMARKS
DEFIANCE       MOCLDY    78  67  68 SW6       29.91F
FINDLAY        CLOUDY    77  69  76 E13       29.94S
TOLEDO EXPRESS LGT RAIN  71  69  93 VRB7      29.93R
TOLEDO EXEC    CLOUDY    70  66  87 E9        29.96R
LIMA           MOCLDY    76  68  76 S7        29.95F
$$

OHZ009>014-019>023-028>033-038-089-040500-
   NORTHEAST OHIO

CITY           SKY/WX    TMP DP  RH WIND       PRES   REMARKS
CLE-HOPKINS    TSTM      68  65  90 S12       30.04R
CLE-LAKEFRONT  LGT RAIN  72  68  87 SW13      30.00R
CUY CO. ARPT   NOT AVBL
LORAIN-ELYRIA  LGT RAIN  66  64  93 S6        30.03R
ASHTABULA      PTCLDY    67  66  97 CALM      30.00R
AKRON-CANTON   MOCLDY    69  65  86 NW10      30.05R
WOOSTER        CLOUDY    67  65  93 N7        30.05F
MANSFIELD      TSTM      67  66  97 NE6       30.05R FOG
YOUNGSTOWN     MOCLDY    67  66  97 CALM      30.00R
$$

OHZ042-051>053-060>062-070>072-077>081-040500-
  SOUTHWEST OHIO

CITY           SKY/WX    TMP DP  RH WIND       PRES   REMARKS
CINC-COVINGTON CLEAR     73  66  78 CALM      29.98S
CINC-LUNKEN    CLEAR     69  68  96 CALM      29.97S
HAMILTON       CLEAR     70  68  93 CALM      29.98S
DAYTON         PTCLDY    77  67  71 SW7       29.99S
WRIGHT-PAT AFB MOCLDY    74  70  87 S1        29.97S
DAYTON GENERAL PTCLDY    75  66  73 CALM      29.98R
WILMINGTON     CLEAR     70  67  90 SW3       29.98S
$$

OHZ036-037-039>041-045>050-054>059-063>069-073>076-082>088-040500-
  CENTRAL AND SOUTHEAST OHIO

CITY           SKY/WX    TMP DP  RH WIND       PRES   REMARKS
COLUMBUS       MOCLDY    68  67  96 NE6       29.98R
OSU AIRPORT    MOCLDY    71  67  87 SE3       29.98R
BOLTON FIELD   MOCLDY    68  66  93 CALM      29.99R
RICKENBACK AFB MOCLDY    68  63  84 CALM      29.98R
NEWARK         MOCLDY    67  65  93 CALM      29.99R
MARION         LGT RAIN  69  66  90 E15G25    29.99R FOG
LANCASTER      MOCLDY    68  65  90 CALM      29.99R
ZANESVILLE     CLEAR     67  65  93 CALM      30.00S FOG
NEW PHILLY     PTCLDY    67  67 100 CALM      30.02R FOG
$$


USA.gov is the U.S. government's official web portal to all federal, state and local government web resources and services.